TimeMST,TemperatureF,Dew PointF,Humidity,Sea Level PressureIn,VisibilityMPH,Wind Direction,Wind SpeedMPH,Gust SpeedMPH,PrecipitationIn,Events,Conditions,WindDirDegrees,DateUTC
12:58 AM,58.8,46.0,63,30.14,10.0,WNW,2.3,-,N/A,,Scattered Clouds,290,2013-01-25 07:58:00
1:58 AM,57.9,46.2,65,30.12,10.0,NE,1.2,-,N/A,,Partly Cloudy,50,2013-01-25 08:58:00
2:58 AM,56.5,46.6,69,30.10,10.0,East,5.8,-,N/A,,Partly Cloudy,90,2013-01-25 09:58:00
3:58 AM,56.3,46.4,69,30.10,10.0,SE,6.9,-,N/A,,Partly Cloudy,140,2013-01-25 10:58:00
4:58 AM,55.4,45.9,70,30.09,10.0,SE,9.2,-,N/A,,Scattered Clouds,130,2013-01-25 11:58:00
5:58 AM,56.7,43.5,61,30.09,10.0,ESE,8.1,-,N/A,,Clear,120,2013-01-25 12:58:00
6:58 AM,54.1,43.5,67,30.12,10.0,SSE,8.1,-,N/A,,Clear,150,2013-01-25 13:58:00
7:58 AM,55.8,43.2,63,30.12,10.0,SE,9.2,-,N/A,,Clear,130,2013-01-25 14:58:00
8:58 AM,59.4,44.2,57,30.11,10.0,SE,9.2,-,N/A,,Clear,130,2013-01-25 15:58:00
9:58 AM,63.5,43.3,48,30.12,10.0,ESE,5.8,-,N/A,,Clear,120,2013-01-25 16:58:00
10:58 AM,68.0,43.2,41,30.10,10.0,ENE,5.8,-,N/A,,Clear,60,2013-01-25 17:58:00
11:58 AM,70.9,43.5,37,30.07,10.0,East,2.3,-,N/A,,Clear,100,2013-01-25 18:58:00
12:58 PM,71.6,43.0,36,30.02,10.0,NNW,2.3,-,N/A,,Clear,330,2013-01-25 19:58:00
1:58 PM,73.0,42.8,34,29.98,10.0,North,4.6,-,N/A,,Clear,350,2013-01-25 20:58:00
2:58 PM,73.8,42.8,33,29.96,10.0,NNE,3.5,-,N/A,,Clear,20,2013-01-25 21:58:00
3:58 PM,74.1,42.3,32,29.95,10.0,NW,1.2,-,N/A,,Partly Cloudy,310,2013-01-25 22:58:00
4:58 PM,74.3,43.2,33,29.93,10.0,WNW,4.6,-,N/A,,Scattered Clouds,300,2013-01-25 23:58:00
5:58 PM,71.8,44.1,37,29.93,10.0,WNW,8.1,-,N/A,,Clear,300,2013-01-26 00:58:00
6:58 PM,68.2,47.3,47,29.95,10.0,WNW,8.1,-,N/A,,Mostly Cloudy,300,2013-01-26 01:58:00
7:58 PM,65.3,48.0,54,29.94,10.0,West,3.5,-,N/A,,Scattered Clouds,260,2013-01-26 02:58:00
8:58 PM,62.6,46.8,56,29.95,10.0,SSW,4.6,-,N/A,,Scattered Clouds,200,2013-01-26 03:58:00
9:58 PM,62.4,46.8,57,29.95,10.0,South,3.5,-,N/A,,Scattered Clouds,170,2013-01-26 04:58:00
10:58 PM,62.2,47.3,58,29.94,10.0,Calm,Calm,-,N/A,,Mostly Cloudy,0,2013-01-26 05:58:00
11:58 PM,62.2,47.1,58,29.92,10.0,East,4.6,-,N/A,,Mostly Cloudy,90,2013-01-26 06:58:00